Dunkirk, NY

12:44 PM EST on January 21, 2018 (GMT -0500)
Chautauqua County-Dunkirk

Weather History for KDKK - April, 2013

Change the Weather History Date:

Monday, April 8, 2013

  Actual Average Record
Temperature  
Mean Temperature 47 °F -  
Max Temperature 66 °F 50 °F 77 °F (1991)
Min Temperature 28 °F 32 °F 10 °F (1972)
Degree Days  
Heating Degree Days 18    
Moisture  
Dew Point 36 °F    
Average Humidity 72    
Maximum Humidity 96    
Minimum Humidity 47    
Precipitation  
Precipitation 0.10 in - - ()
Sea Level Pressure  
Sea Level Pressure 29.98 in    
Wind  
Wind Speed 4 mph (NNE)    
Max Wind Speed 26 mph    
Max Gust Speed 38 mph    
Visibility 10 miles    
Events Rain    
Averages and records for this station are not official NWS values.
T = Trace of Precipitation, MM = Missing Value Source: NWS Daily Summary

Daily Weather History Graph

Daily Weather History Graph

Search for Another Location

Airport or City:

Trip Planner

Search our weather history database for the weather conditions in past years. The results will help you decide how hot, cold, wet, or windy it might be!

Date:

Astronomy

Apr. 08, 2013 Rise Set
Actual Time 6:47 AM EDT 7:51 PM EDT
Civil Twilight 6:18 AM EDT 8:20 PM EDT
Nautical Twilight 5:44 AM EDT 8:54 PM EDT
Astronomical Twilight 5:08 AM EDT 9:30 PM EDT
Moon 5:38 AM EDT (4/8) 6:22 PM EDT (4/8)
Length of Visible Light 14h 01m
Length of Day
13h 04m
Waning Crescent, 3% of the Moon is Illuminated
Apr 8
Waning Crescent
Apr 10
New
Apr 18
First Quarter
Apr 25
Full
May 2
Last Quarter

Hourly Weather History & Observations

Time (EDT) Temp. Windchill Dew Point Humidity Pressure Visibility Wind Dir Wind Speed Gust Speed Precip Events Conditions
12:43 AM 33.8 °F - 30.2 °F 87% 30.06 in 8.0 mi Calm Calm - N/A   Mostly Cloudy
12:53 AM 35.1 °F - 32.0 °F 89% 30.07 in 8.0 mi Calm Calm - N/A   Overcast
1:53 AM 37.0 °F - 34.0 °F 89% 30.09 in 10.0 mi Calm Calm - N/A   Overcast
2:53 AM 37.9 °F - 33.1 °F 83% 30.08 in 10.0 mi Calm Calm - N/A   Overcast
3:15 AM 35.6 °F - 32.0 °F 87% 30.07 in 10.0 mi Calm Calm - N/A   Scattered Clouds
3:53 AM 34.0 °F - 32.0 °F 92% 30.08 in 8.0 mi Calm Calm - N/A   Clear
4:53 AM 28.9 °F - 27.0 °F 92% 30.08 in 9.0 mi Calm Calm - N/A   Clear
5:53 AM 28.9 °F 25.2 °F 28.0 °F 96% 30.07 in 10.0 mi SSE 3.5 mph - N/A   Clear
6:53 AM 28.0 °F - 27.0 °F 96% 30.09 in 6.0 mi Calm Calm - N/A   Clear
7:53 AM 33.1 °F - 30.9 °F 92% 30.11 in 10.0 mi Calm Calm - N/A   Clear
8:53 AM 42.1 °F 38.4 °F 34.0 °F 73% 30.10 in 10.0 mi NE 5.8 mph - N/A   Clear
9:53 AM 46.9 °F - 36.0 °F 66% 30.08 in 10.0 mi Calm Calm - N/A   Clear
10:53 AM 48.9 °F - 36.0 °F 61% 30.06 in 10.0 mi NNE 9.2 mph - N/A   Clear
11:53 AM 51.1 °F - 35.1 °F 54% 30.04 in 10.0 mi NNE 9.2 mph - N/A   Clear
12:53 PM 52.0 °F - 35.1 °F 53% 30.01 in 10.0 mi North 11.5 mph - N/A   Clear
1:53 PM 55.0 °F - 35.1 °F 47% 29.97 in 10.0 mi NE 11.5 mph - N/A   Clear
2:53 PM 55.0 °F - 36.0 °F 49% 29.92 in 10.0 mi NE 11.5 mph - N/A   Clear
3:53 PM 55.0 °F - 37.0 °F 51% 29.89 in 10.0 mi NNE 4.6 mph - 0.00 in Rain Light Rain
4:53 PM 57.0 °F - 39.0 °F 51% 29.85 in 10.0 mi NNW 3.5 mph - 0.00 in   Overcast
5:53 PM 55.9 °F - 42.1 °F 60% 29.82 in 10.0 mi NNW 8.1 mph - 0.00 in   Overcast
6:53 PM 48.0 °F - 42.1 °F 80% 29.85 in 10.0 mi NE 5.8 mph - 0.00 in Rain Light Rain
7:53 PM 52.0 °F - 45.0 °F 77% 29.80 in 10.0 mi South 4.6 mph - 0.00 in   Overcast
8:53 PM 51.1 °F - 43.0 °F 74% 29.80 in 10.0 mi SW 5.8 mph - N/A   Mostly Cloudy
9:53 PM 66.9 °F - 46.9 °F 49% 29.80 in 10.0 mi SSW 26.5 mph 38.0 mph N/A   Mostly Cloudy
10:53 PM 64.9 °F - 48.9 °F 56% 29.81 in 10.0 mi SW 19.6 mph 34.5 mph 0.00 in Rain Light Rain
11:53 PM 66.0 °F - 50.0 °F 56% 29.80 in 10.0 mi SW 20.7 mph 33.4 mph 0.10 in   Mostly Cloudy